Time,TemperatureF,DewpointF,PressureIn,WindDirection,WindDirectionDegrees,WindSpeedMPH,WindSpeedGustMPH,Humidity,HourlyPrecipIn,Conditions,Clouds,dailyrainin,SoftwareType,DateUTC
2013-04-21 00:01:00,49.0,30.2,30.27,WSW,250,1.0,2.0,48,0.00,,---,0.29,VWS V13.01,2013-04-21 04:01:00,
2013-04-21 00:06:00,48.8,30.5,30.27,SW,229,3.0,3.0,49,0.00,,---,0.00,VWS V13.01,2013-04-21 04:06:00,
2013-04-21 00:11:00,48.8,30.5,30.27,WSW,238,2.0,5.0,49,0.00,,---,0.00,VWS V13.01,2013-04-21 04:11:00,
2013-04-21 00:16:00,48.7,30.4,30.27,WSW,252,4.0,5.0,49,0.00,,---,0.00,VWS V13.01,2013-04-21 04:16:00,
2013-04-21 00:21:00,48.5,30.2,30.27,NW,312,0.0,1.0,49,0.00,,---,0.00,VWS V13.01,2013-04-21 04:21:00,
2013-04-21 00:26:00,48.4,30.1,30.28,NW,319,0.0,2.0,49,0.00,,---,0.00,VWS V13.01,2013-04-21 04:26:00,
2013-04-21 00:31:00,48.3,30.0,30.28,SW,233,0.0,1.0,49,0.00,,---,0.00,VWS V13.01,2013-04-21 04:31:00,
2013-04-21 00:36:00,48.2,30.0,30.28,WSW,250,0.0,0.0,49,0.00,,---,0.00,VWS V13.01,2013-04-21 04:36:00,
2013-04-21 00:41:00,48.0,29.8,30.28,SW,214,0.0,0.0,49,0.00,,---,0.00,VWS V13.01,2013-04-21 04:41:00,
2013-04-21 00:46:00,47.9,29.7,30.28,SSW,213,0.0,1.0,49,0.00,,---,0.00,VWS V13.01,2013-04-21 04:46:00,
2013-04-21 00:51:00,47.8,30.1,30.28,WSW,248,2.0,2.0,50,0.00,,---,0.00,VWS V13.01,2013-04-21 04:51:00,
2013-04-21 00:56:00,47.6,29.9,30.28,WSW,241,3.0,3.0,50,0.00,,---,0.00,VWS V13.01,2013-04-21 04:56:00,
2013-04-21 01:01:00,47.5,29.8,30.28,SW,220,1.0,5.0,50,0.00,,---,0.00,VWS V13.01,2013-04-21 05:01:00,
2013-04-21 01:06:00,47.4,30.2,30.29,WSW,250,1.0,2.0,51,0.00,,---,0.00,VWS V13.01,2013-04-21 05:06:00,
2013-04-21 01:11:00,47.3,30.1,30.29,West,260,2.0,3.0,51,0.00,,---,0.00,VWS V13.01,2013-04-21 05:11:00,
2013-04-21 01:16:00,47.2,30.0,30.29,West,269,2.0,2.0,51,0.00,,---,0.00,VWS V13.01,2013-04-21 05:16:00,
2013-04-21 01:21:00,47.1,30.4,30.30,West,263,0.0,1.0,52,0.00,,---,0.00,VWS V13.01,2013-04-21 05:21:00,
2013-04-21 01:26:00,46.9,29.7,30.30,SW,230,0.0,1.0,51,0.00,,---,0.00,VWS V13.01,2013-04-21 05:26:00,
2013-04-21 01:31:00,46.8,30.6,30.31,WSW,244,1.0,1.0,53,0.00,,---,0.00,VWS V13.01,2013-04-21 05:31:00,
2013-04-21 01:36:00,46.6,30.4,30.31,SSW,198,0.0,1.0,53,0.00,,---,0.00,VWS V13.01,2013-04-21 05:36:00,
2013-04-21 01:41:00,46.4,30.2,30.31,WSW,242,2.0,2.0,53,0.00,,---,0.00,VWS V13.01,2013-04-21 05:41:00,
2013-04-21 01:46:00,46.3,30.1,30.32,WNW,284,0.0,2.0,53,0.00,,---,0.00,VWS V13.01,2013-04-21 05:46:00,
2013-04-21 01:51:00,46.2,30.0,30.32,WSW,240,1.0,1.0,53,0.00,,---,0.00,VWS V13.01,2013-04-21 05:51:00,
2013-04-21 01:56:00,46.2,30.0,30.32,WSW,256,0.0,4.0,53,0.00,,---,0.00,VWS V13.01,2013-04-21 05:56:00,
2013-04-21 02:01:00,46.1,29.5,30.32,South,188,0.0,5.0,52,0.00,,---,0.00,VWS V13.01,2013-04-21 06:01:00,
2013-04-21 02:06:00,46.0,28.9,30.33,SW,232,0.0,3.0,51,0.00,,---,0.00,VWS V13.01,2013-04-21 06:06:00,
2013-04-21 02:11:00,45.8,28.2,30.33,WSW,253,0.0,3.0,50,0.00,,---,0.00,VWS V13.01,2013-04-21 06:11:00,
2013-04-21 02:16:00,45.7,28.1,30.33,WSW,237,2.0,3.0,50,0.00,,---,0.00,VWS V13.01,2013-04-21 06:16:00,
2013-04-21 02:21:00,45.5,28.0,30.33,WSW,248,3.0,3.0,50,0.00,,---,0.00,VWS V13.01,2013-04-21 06:21:00,
2013-04-21 02:26:00,45.3,27.8,30.33,SW,236,4.0,7.0,50,0.00,,---,0.00,VWS V13.01,2013-04-21 06:26:00,
2013-04-21 02:31:00,45.2,27.7,30.33,SW,233,0.0,3.0,50,0.00,,---,0.00,VWS V13.01,2013-04-21 06:31:00,
2013-04-21 02:36:00,45.0,27.5,30.33,WSW,244,0.0,1.0,50,0.00,,---,0.00,VWS V13.01,2013-04-21 06:36:00,
2013-04-21 02:41:00,44.8,27.8,30.33,WSW,256,0.0,1.0,51,0.00,,---,0.00,VWS V13.01,2013-04-21 06:41:00,
2013-04-21 02:46:00,44.6,27.6,30.33,WSW,250,0.0,3.0,51,0.00,,---,0.00,VWS V13.01,2013-04-21 06:46:00,
2013-04-21 02:51:00,44.4,27.4,30.34,WSW,237,1.0,2.0,51,0.00,,---,0.00,VWS V13.01,2013-04-21 06:51:00,
2013-04-21 02:56:00,44.3,27.3,30.34,WSW,257,1.0,3.0,51,0.00,,---,0.00,VWS V13.01,2013-04-21 06:56:00,
2013-04-21 03:01:00,44.2,27.2,30.34,WSW,257,3.0,6.0,51,0.00,,---,0.00,VWS V13.01,2013-04-21 07:01:00,
2013-04-21 03:06:00,44.0,27.5,30.34,West,261,0.0,4.0,52,0.00,,---,0.00,VWS V13.01,2013-04-21 07:06:00,
2013-04-21 03:11:00,43.8,27.8,30.34,WNW,288,0.0,3.0,53,0.00,,---,0.00,VWS V13.01,2013-04-21 07:11:00,
2013-04-21 03:16:00,43.6,27.6,30.35,WSW,238,2.0,3.0,53,0.00,,---,0.00,VWS V13.01,2013-04-21 07:16:00,
2013-04-21 03:21:00,43.3,27.3,30.35,SW,229,2.0,2.0,53,0.00,,---,0.00,VWS V13.01,2013-04-21 07:21:00,
2013-04-21 03:26:00,43.1,27.6,30.35,NNE,15,3.0,3.0,54,0.00,,---,0.00,VWS V13.01,2013-04-21 07:26:00,
2013-04-21 03:31:00,42.8,27.3,30.35,WSW,249,3.0,4.0,54,0.00,,---,0.00,VWS V13.01,2013-04-21 07:31:00,
2013-04-21 03:36:00,42.6,27.1,30.35,WSW,256,1.0,4.0,54,0.00,,---,0.00,VWS V13.01,2013-04-21 07:36:00,
2013-04-21 03:41:00,42.4,27.0,30.36,West,261,1.0,3.0,54,0.00,,---,0.00,VWS V13.01,2013-04-21 07:41:00,
2013-04-21 03:46:00,42.2,26.8,30.36,WSW,244,1.0,4.0,54,0.00,,---,0.00,VWS V13.01,2013-04-21 07:46:00,
2013-04-21 03:51:00,42.0,26.6,30.36,WSW,256,1.0,3.0,54,0.00,,---,0.00,VWS V13.01,2013-04-21 07:51:00,
2013-04-21 03:56:00,41.8,26.4,30.36,WSW,244,0.0,3.0,54,0.00,,---,0.00,VWS V13.01,2013-04-21 07:56:00,
2013-04-21 04:01:00,41.6,26.6,30.36,WNW,294,1.0,3.0,55,0.00,,---,0.00,VWS V13.01,2013-04-21 08:01:00,
2013-04-21 04:06:00,41.4,26.0,30.37,SW,236,1.0,1.0,54,0.00,,---,0.00,VWS V13.01,2013-04-21 08:06:00,
2013-04-21 04:11:00,41.3,25.9,30.37,SW,229,2.0,3.0,54,0.00,,---,0.00,VWS V13.01,2013-04-21 08:11:00,
2013-04-21 04:16:00,41.1,25.7,30.38,SSW,196,0.0,1.0,54,0.00,,---,0.00,VWS V13.01,2013-04-21 08:16:00,
2013-04-21 04:21:00,40.9,25.1,30.38,West,259,2.0,3.0,53,0.00,,---,0.00,VWS V13.01,2013-04-21 08:21:00,
2013-04-21 04:26:00,40.9,25.1,30.38,WNW,283,1.0,5.0,53,0.00,,---,0.00,VWS V13.01,2013-04-21 08:26:00,
2013-04-21 04:31:00,40.8,25.0,30.38,WSW,238,0.0,1.0,53,0.00,,---,0.00,VWS V13.01,2013-04-21 08:31:00,
2013-04-21 04:36:00,40.6,24.8,30.39,WSW,256,1.0,3.0,53,0.00,,---,0.00,VWS V13.01,2013-04-21 08:36:00,
2013-04-21 04:41:00,40.5,24.7,30.39,WNW,286,1.0,1.0,53,0.00,,---,0.00,VWS V13.01,2013-04-21 08:41:00,
2013-04-21 04:46:00,40.4,24.6,30.39,WSW,240,0.0,2.0,53,0.00,,---,0.00,VWS V13.01,2013-04-21 08:46:00,
2013-04-21 04:51:00,40.2,24.5,30.40,SW,218,0.0,0.0,53,0.00,,---,0.00,VWS V13.01,2013-04-21 08:51:00,
2013-04-21 04:56:00,40.1,24.8,30.40,WSW,250,0.0,3.0,54,0.00,,---,0.00,VWS V13.01,2013-04-21 08:56:00,
2013-04-21 05:01:00,40.0,24.3,30.40,WSW,239,2.0,2.0,53,0.00,,---,0.00,VWS V13.01,2013-04-21 09:01:00,
2013-04-21 05:06:00,39.9,24.6,30.40,WSW,254,1.0,2.0,54,0.00,,---,0.00,VWS V13.01,2013-04-21 09:06:00,
2013-04-21 05:11:00,39.7,24.0,30.40,SW,226,0.0,1.0,53,0.00,,---,0.00,VWS V13.01,2013-04-21 09:11:00,
2013-04-21 05:16:00,39.7,24.4,30.41,West,264,0.0,2.0,54,0.00,,---,0.00,VWS V13.01,2013-04-21 09:16:00,
2013-04-21 05:21:00,39.5,24.2,30.41,WSW,257,2.0,2.0,54,0.00,,---,0.00,VWS V13.01,2013-04-21 09:21:00,
2013-04-21 05:26:00,39.4,24.1,30.41,WSW,252,0.0,0.0,54,0.00,,---,0.00,VWS V13.01,2013-04-21 09:26:00,
2013-04-21 05:31:00,39.2,24.0,30.42,WSW,249,1.0,1.0,54,0.00,,---,0.00,VWS V13.01,2013-04-21 09:31:00,
2013-04-21 05:36:00,39.1,23.9,30.42,WSW,242,3.0,3.0,54,0.00,,---,0.00,VWS V13.01,2013-04-21 09:36:00,
2013-04-21 05:41:00,39.0,24.2,30.42,WSW,246,0.0,2.0,55,0.00,,---,0.00,VWS V13.01,2013-04-21 09:41:00,
2013-04-21 05:46:00,38.9,23.7,30.43,WSW,256,3.0,3.0,54,0.00,,---,0.00,VWS V13.01,2013-04-21 09:46:00,
2013-04-21 05:51:00,38.8,24.0,30.43,WSW,243,0.0,0.0,55,0.00,,---,0.00,VWS V13.01,2013-04-21 09:51:00,
2013-04-21 05:56:00,38.7,23.9,30.43,WSW,239,0.0,0.0,55,0.00,,---,0.00,VWS V13.01,2013-04-21 09:56:00,
2013-04-21 06:01:00,38.5,23.8,30.43,WSW,244,0.0,0.0,55,0.00,,---,0.00,VWS V13.01,2013-04-21 10:01:00,
2013-04-21 06:06:00,38.4,24.1,30.43,WSW,243,0.0,1.0,56,0.00,,---,0.00,VWS V13.01,2013-04-21 10:06:00,
2013-04-21 06:10:00,38.3,24.0,30.44,WSW,256,0.0,0.0,56,0.00,,---,0.00,VWS V13.01,2013-04-21 10:10:00,
2013-04-21 06:15:00,38.3,24.0,30.44,WSW,237,2.0,2.0,56,0.00,,---,0.00,VWS V13.01,2013-04-21 10:15:00,
2013-04-21 06:20:00,38.3,24.0,30.45,WSW,245,1.0,2.0,56,0.00,,---,0.00,VWS V13.01,2013-04-21 10:20:00,
2013-04-21 06:25:00,38.2,24.7,30.45,WSW,252,0.0,0.0,58,0.00,,---,0.00,VWS V13.01,2013-04-21 10:25:00,
2013-04-21 06:30:00,38.2,24.7,30.45,WSW,247,0.0,1.0,58,0.00,,---,0.00,VWS V13.01,2013-04-21 10:30:00,
2013-04-21 06:35:00,38.2,24.7,30.46,East,81,1.0,1.0,58,0.00,,---,0.00,VWS V13.01,2013-04-21 10:35:00,
2013-04-21 06:40:00,38.2,24.7,30.46,WSW,256,0.0,1.0,58,0.00,,---,0.00,VWS V13.01,2013-04-21 10:40:00,
2013-04-21 06:45:00,38.3,24.8,30.47,WSW,248,1.0,3.0,58,0.00,,---,0.00,VWS V13.01,2013-04-21 10:45:00,
2013-04-21 06:50:00,38.5,25.0,30.47,WSW,254,2.0,3.0,58,0.00,,---,0.00,VWS V13.01,2013-04-21 10:50:00,
2013-04-21 06:55:00,38.7,24.8,30.48,West,263,0.0,1.0,57,0.00,,---,0.00,VWS V13.01,2013-04-21 10:55:00,
2013-04-21 07:00:00,38.8,25.3,30.48,WSW,254,0.0,0.0,58,0.00,,---,0.00,VWS V13.01,2013-04-21 11:00:00,
2013-04-21 07:05:00,39.0,25.5,30.49,WSW,240,0.0,1.0,58,0.00,,---,0.00,VWS V13.01,2013-04-21 11:05:00,
2013-04-21 07:10:00,39.1,26.0,30.49,West,260,1.0,2.0,59,0.00,,---,0.00,VWS V13.01,2013-04-21 11:10:00,
2013-04-21 07:15:00,39.3,25.8,30.49,West,264,0.0,1.0,58,0.00,,---,0.00,VWS V13.01,2013-04-21 11:15:00,
2013-04-21 07:20:00,39.6,26.1,30.49,SW,215,0.0,1.0,58,0.00,,---,0.00,VWS V13.01,2013-04-21 11:20:00,
2013-04-21 07:25:00,39.8,26.2,30.50,WSW,246,0.0,0.0,58,0.00,,---,0.00,VWS V13.01,2013-04-21 11:25:00,
2013-04-21 07:30:00,40.3,26.3,30.50,WSW,249,2.0,3.0,57,0.00,,---,0.00,VWS V13.01,2013-04-21 11:30:00,
2013-04-21 07:35:00,40.6,26.1,30.50,SW,233,2.0,2.0,56,0.00,,---,0.00,VWS V13.01,2013-04-21 11:35:00,
2013-04-21 07:40:00,40.8,25.9,30.50,WSW,248,2.0,2.0,55,0.00,,---,0.00,VWS V13.01,2013-04-21 11:40:00,
2013-04-21 07:45:00,41.0,26.1,30.50,SW,233,1.0,1.0,55,0.00,,---,0.00,VWS V13.01,2013-04-21 11:45:00,
2013-04-21 07:50:00,41.1,26.2,30.50,WSW,252,2.0,3.0,55,0.00,,---,0.00,VWS V13.01,2013-04-21 11:50:00,
2013-04-21 07:55:00,41.3,26.4,30.50,East,89,0.0,1.0,55,0.00,,---,0.00,VWS V13.01,2013-04-21 11:55:00,
2013-04-21 08:00:00,41.4,26.0,30.50,WSW,240,1.0,1.0,54,0.00,,---,0.00,VWS V13.01,2013-04-21 12:00:00,
2013-04-21 08:05:00,41.6,26.2,30.51,SW,232,0.0,2.0,54,0.00,,---,0.00,VWS V13.01,2013-04-21 12:05:00,
2013-04-21 08:10:00,41.6,25.8,30.51,WSW,252,5.0,5.0,53,0.00,,---,0.00,VWS V13.01,2013-04-21 12:10:00,
2013-04-21 08:15:00,41.6,25.8,30.51,West,261,4.0,4.0,53,0.00,,---,0.00,VWS V13.01,2013-04-21 12:15:00,
2013-04-21 08:20:00,41.9,26.5,30.51,WSW,243,2.0,2.0,54,0.00,,---,0.00,VWS V13.01,2013-04-21 12:20:00,
2013-04-21 08:25:00,42.1,25.8,30.51,ENE,78,7.0,11.0,52,0.00,,---,0.00,VWS V13.01,2013-04-21 12:25:00,
2013-04-21 08:30:00,42.4,27.0,30.51,NNW,330,1.0,2.0,54,0.00,,---,0.00,VWS V13.01,2013-04-21 12:30:00,
2013-04-21 08:35:00,42.5,26.1,30.51,NNW,330,3.0,11.0,52,0.00,,---,0.00,VWS V13.01,2013-04-21 12:35:00,
2013-04-21 08:40:00,42.7,26.3,30.51,NE,38,0.0,1.0,52,0.00,,---,0.00,VWS V13.01,2013-04-21 12:40:00,
2013-04-21 08:45:00,42.9,26.0,30.51,NNE,23,0.0,3.0,51,0.00,,---,0.00,VWS V13.01,2013-04-21 12:45:00,
2013-04-21 08:50:00,43.0,26.1,30.52,NNW,345,0.0,4.0,51,0.00,,---,0.00,VWS V13.01,2013-04-21 12:50:00,
2013-04-21 08:55:00,43.1,26.2,30.52,NW,304,5.0,6.0,51,0.00,,---,0.00,VWS V13.01,2013-04-21 12:55:00,
2013-04-21 09:00:00,43.2,26.3,30.52,NNE,12,5.0,6.0,51,0.00,,---,0.00,VWS V13.01,2013-04-21 13:00:00,
2013-04-21 09:05:00,43.5,26.1,30.52,ENE,78,3.0,3.0,50,0.00,,---,0.00,VWS V13.01,2013-04-21 13:05:00,
2013-04-21 09:10:00,43.8,26.9,30.52,NW,320,1.0,2.0,51,0.00,,---,0.00,VWS V13.01,2013-04-21 13:10:00,
2013-04-21 09:15:00,43.8,26.4,30.53,East,87,4.0,4.0,50,0.00,,---,0.00,VWS V13.01,2013-04-21 13:15:00,
2013-04-21 09:20:00,44.0,26.6,30.53,NNW,338,2.0,4.0,50,0.00,,---,0.00,VWS V13.01,2013-04-21 13:20:00,
2013-04-21 09:25:00,44.0,26.6,30.53,North,11,3.0,3.0,50,0.00,,---,0.00,VWS V13.01,2013-04-21 13:25:00,
2013-04-21 09:30:00,44.2,27.2,30.53,ESE,109,2.0,3.0,51,0.00,,---,0.00,VWS V13.01,2013-04-21 13:30:00,
2013-04-21 09:35:00,44.3,26.4,30.53,East,90,2.0,4.0,49,0.00,,---,0.00,VWS V13.01,2013-04-21 13:35:00,
2013-04-21 09:40:00,44.3,27.3,30.53,NE,41,0.0,0.0,51,0.00,,---,0.00,VWS V13.01,2013-04-21 13:40:00,
2013-04-21 09:45:00,44.6,26.6,30.54,North,11,5.0,5.0,49,0.00,,---,0.00,VWS V13.01,2013-04-21 13:45:00,
2013-04-21 09:50:00,44.6,26.6,30.54,NNW,336,4.0,4.0,49,0.00,,---,0.00,VWS V13.01,2013-04-21 13:50:00,
2013-04-21 09:55:00,44.7,27.7,30.54,SSE,149,2.0,4.0,51,0.00,,---,0.00,VWS V13.01,2013-04-21 13:55:00,
2013-04-21 10:00:00,45.1,27.6,30.55,East,81,2.0,2.0,50,0.00,,---,0.00,VWS V13.01,2013-04-21 14:00:00,
2013-04-21 10:05:00,45.3,27.3,30.54,ESE,103,1.0,3.0,49,0.00,,---,0.00,VWS V13.01,2013-04-21 14:05:00,
2013-04-21 10:10:00,45.6,28.0,30.55,ESE,103,0.0,1.0,50,0.00,,---,0.00,VWS V13.01,2013-04-21 14:10:00,
2013-04-21 10:15:00,45.8,28.2,30.55,ENE,67,7.0,7.0,50,0.00,,---,0.00,VWS V13.01,2013-04-21 14:15:00,
2013-04-21 10:20:00,45.9,27.8,30.55,NNW,348,4.0,6.0,49,0.00,,---,0.00,VWS V13.01,2013-04-21 14:20:00,
2013-04-21 10:25:00,45.8,28.2,30.55,ESE,114,1.0,1.0,50,0.00,,---,0.00,VWS V13.01,2013-04-21 14:25:00,
2013-04-21 10:30:00,45.7,27.6,30.55,East,98,3.0,3.0,49,0.00,,---,0.00,VWS V13.01,2013-04-21 14:30:00,
2013-04-21 10:35:00,45.8,27.7,30.55,NNE,32,4.0,5.0,49,0.00,,---,0.00,VWS V13.01,2013-04-21 14:35:00,
2013-04-21 10:40:00,45.9,27.8,30.55,NW,323,3.0,3.0,49,0.00,,---,0.00,VWS V13.01,2013-04-21 14:40:00,
2013-04-21 10:45:00,45.9,27.8,30.55,ESE,109,1.0,1.0,49,0.00,,---,0.00,VWS V13.01,2013-04-21 14:45:00,
2013-04-21 10:50:00,46.0,28.9,30.55,SE,145,0.0,0.0,51,0.00,,---,0.00,VWS V13.01,2013-04-21 14:50:00,
2013-04-21 10:55:00,46.3,27.7,30.55,SE,138,2.0,2.0,48,0.00,,---,0.00,VWS V13.01,2013-04-21 14:55:00,
2013-04-21 11:00:00,46.6,28.5,30.55,NNW,346,3.0,3.0,49,0.00,,---,0.00,VWS V13.01,2013-04-21 15:00:00,
2013-04-21 11:05:00,46.8,29.6,30.55,SE,145,9.0,9.0,51,0.00,,---,0.00,VWS V13.01,2013-04-21 15:05:00,
2013-04-21 11:10:00,46.7,30.5,30.55,East,83,2.0,2.0,53,0.00,,---,0.00,VWS V13.01,2013-04-21 15:10:00,
2013-04-21 11:15:00,46.5,30.3,30.55,East,98,6.0,9.0,53,0.00,,---,0.00,VWS V13.01,2013-04-21 15:15:00,
2013-04-21 11:20:00,46.8,30.6,30.56,SE,130,1.0,4.0,53,0.00,,---,0.00,VWS V13.01,2013-04-21 15:20:00,
2013-04-21 11:25:00,47.0,31.7,30.56,SE,138,5.0,5.0,55,0.00,,---,0.00,VWS V13.01,2013-04-21 15:25:00,
2013-04-21 11:30:00,47.0,30.3,30.55,East,87,4.0,4.0,52,0.00,,---,0.00,VWS V13.01,2013-04-21 15:30:00,
2013-04-21 11:35:00,47.0,32.1,30.55,East,98,3.0,3.0,56,0.00,,---,0.00,VWS V13.01,2013-04-21 15:35:00,
2013-04-21 11:40:00,47.1,31.3,30.55,SE,134,3.0,3.0,54,0.00,,---,0.00,VWS V13.01,2013-04-21 15:40:00,
2013-04-21 11:45:00,47.2,31.9,30.55,SSW,192,5.0,9.0,55,0.00,,---,0.00,VWS V13.01,2013-04-21 15:45:00,
2013-04-21 11:50:00,47.6,31.3,30.55,SSE,154,3.0,5.0,53,0.00,,---,0.00,VWS V13.01,2013-04-21 15:50:00,
2013-04-21 11:55:00,47.2,31.9,30.56,SE,130,9.0,12.0,55,0.00,,---,0.00,VWS V13.01,2013-04-21 15:55:00,
2013-04-21 12:00:00,47.2,32.3,30.55,SE,140,0.0,1.0,56,0.00,,---,0.00,VWS V13.01,2013-04-21 16:00:00,
2013-04-21 12:05:00,47.1,31.3,30.55,SSW,192,3.0,3.0,54,0.00,,---,0.00,VWS V13.01,2013-04-21 16:05:00,
2013-04-21 12:10:00,47.4,32.5,30.55,ESE,123,4.0,4.0,56,0.00,,---,0.00,VWS V13.01,2013-04-21 16:10:00,
2013-04-21 12:15:00,47.8,31.5,30.55,East,99,9.0,9.0,53,0.00,,---,0.00,VWS V13.01,2013-04-21 16:15:00,
2013-04-21 12:20:00,48.1,32.7,30.55,ESE,109,7.0,10.0,55,0.00,,---,0.00,VWS V13.01,2013-04-21 16:20:00,
2013-04-21 12:25:00,48.2,31.9,30.55,ESE,113,4.0,4.0,53,0.00,,---,0.00,VWS V13.01,2013-04-21 16:25:00,
2013-04-21 12:30:00,48.2,32.3,30.55,SSE,154,6.0,10.0,54,0.00,,---,0.00,VWS V13.01,2013-04-21 16:30:00,
2013-04-21 12:35:00,48.3,32.0,30.55,SW,227,1.0,2.0,53,0.00,,---,0.00,VWS V13.01,2013-04-21 16:35:00,
2013-04-21 12:40:00,48.1,31.8,30.55,SSW,194,3.0,5.0,53,0.00,,---,0.00,VWS V13.01,2013-04-21 16:40:00,
2013-04-21 12:45:00,48.1,31.8,30.55,SW,230,7.0,7.0,53,0.00,,---,0.00,VWS V13.01,2013-04-21 16:45:00,
2013-04-21 12:50:00,48.2,31.4,30.55,SW,233,3.0,3.0,52,0.00,,---,0.00,VWS V13.01,2013-04-21 16:50:00,
2013-04-21 12:55:00,48.3,32.9,30.55,SE,134,3.0,3.0,55,0.00,,---,0.00,VWS V13.01,2013-04-21 16:55:00,
2013-04-21 13:00:00,48.8,32.9,30.55,South,184,5.0,11.0,54,0.00,,---,0.00,VWS V13.01,2013-04-21 17:00:00,
2013-04-21 13:05:00,49.0,32.2,30.55,SW,230,6.0,6.0,52,0.00,,---,0.00,VWS V13.01,2013-04-21 17:05:00,
2013-04-21 13:10:00,49.4,33.5,30.55,South,175,3.0,7.0,54,0.00,,---,0.00,VWS V13.01,2013-04-21 17:10:00,
2013-04-21 13:15:00,49.8,32.9,30.55,SSW,211,4.0,7.0,52,0.00,,---,0.00,VWS V13.01,2013-04-21 17:15:00,
2013-04-21 13:20:00,50.1,32.7,30.55,South,185,3.0,5.0,51,0.00,,---,0.00,VWS V13.01,2013-04-21 17:20:00,
2013-04-21 13:25:00,50.3,33.8,30.55,West,259,4.0,4.0,53,0.00,,---,0.00,VWS V13.01,2013-04-21 17:25:00,
2013-04-21 13:30:00,50.1,32.7,30.55,SSW,211,5.0,9.0,51,0.00,,---,0.00,VWS V13.01,2013-04-21 17:30:00,
2013-04-21 13:35:00,49.5,32.6,30.55,SW,214,4.0,7.0,52,0.00,,---,0.00,VWS V13.01,2013-04-21 17:35:00,
2013-04-21 13:40:00,49.0,32.2,30.55,WSW,237,7.0,7.0,52,0.00,,---,0.00,VWS V13.01,2013-04-21 17:40:00,
2013-04-21 13:45:00,49.0,31.7,30.55,South,184,4.0,5.0,51,0.00,,---,0.00,VWS V13.01,2013-04-21 17:45:00,
2013-04-21 13:50:00,48.3,32.0,30.55,SW,220,8.0,8.0,53,0.00,,---,0.00,VWS V13.01,2013-04-21 17:50:00,
2013-04-21 13:55:00,48.8,32.4,30.55,SW,229,1.0,6.0,53,0.00,,---,0.00,VWS V13.01,2013-04-21 17:55:00,
2013-04-21 14:00:00,48.9,32.5,30.55,SW,233,3.0,6.0,53,0.00,,---,0.00,VWS V13.01,2013-04-21 18:00:00,
2013-04-21 14:05:00,49.4,32.5,30.55,WNW,284,2.0,5.0,52,0.00,,---,0.00,VWS V13.01,2013-04-21 18:05:00,
2013-04-21 14:10:00,49.3,32.9,30.55,SSW,194,4.0,7.0,53,0.00,,---,0.00,VWS V13.01,2013-04-21 18:10:00,
2013-04-21 14:15:00,49.3,32.9,30.55,SSW,213,2.0,7.0,53,0.00,,---,0.00,VWS V13.01,2013-04-21 18:15:00,
2013-04-21 14:20:00,49.4,32.5,30.56,SW,223,3.0,12.0,52,0.00,,---,0.00,VWS V13.01,2013-04-21 18:20:00,
2013-04-21 14:25:00,49.1,32.2,30.55,West,281,4.0,5.0,52,0.00,,---,0.00,VWS V13.01,2013-04-21 18:25:00,
2013-04-21 14:30:00,49.1,31.8,30.55,WSW,253,2.0,6.0,51,0.00,,---,0.00,VWS V13.01,2013-04-21 18:30:00,
2013-04-21 14:35:00,49.2,32.3,30.55,SW,221,1.0,2.0,52,0.00,,---,0.00,VWS V13.01,2013-04-21 18:35:00,
2013-04-21 14:40:00,49.4,31.1,30.55,West,265,3.0,5.0,49,0.00,,---,0.00,VWS V13.01,2013-04-21 18:40:00,
2013-04-21 14:45:00,49.2,30.4,30.55,NNW,333,1.0,6.0,48,0.00,,---,0.00,VWS V13.01,2013-04-21 18:45:00,
2013-04-21 14:50:00,48.9,31.1,30.55,NW,307,4.0,6.0,50,0.00,,---,0.00,VWS V13.01,2013-04-21 18:50:00,
2013-04-21 14:55:00,49.0,31.7,30.54,West,268,2.0,4.0,51,0.00,,---,0.00,VWS V13.01,2013-04-21 18:55:00,
2013-04-21 15:00:00,49.0,30.7,30.54,WSW,253,3.0,4.0,49,0.00,,---,0.00,VWS V13.01,2013-04-21 19:00:00,
2013-04-21 15:05:00,48.8,31.0,30.54,East,99,3.0,6.0,50,0.00,,---,0.00,VWS V13.01,2013-04-21 19:05:00,
2013-04-21 15:10:00,48.8,30.0,30.54,East,97,3.0,4.0,48,0.00,,---,0.00,VWS V13.01,2013-04-21 19:10:00,
2013-04-21 15:15:00,48.8,32.4,30.54,SE,134,3.0,5.0,53,0.00,,---,0.00,VWS V13.01,2013-04-21 19:15:00,
2013-04-21 15:20:00,49.1,30.8,30.54,East,81,4.0,5.0,49,0.00,,---,0.00,VWS V13.01,2013-04-21 19:20:00,
2013-04-21 15:25:00,48.9,31.1,30.54,SSE,159,5.0,8.0,50,0.00,,---,0.00,VWS V13.01,2013-04-21 19:25:00,
2013-04-21 15:30:00,48.9,31.1,30.54,South,179,4.0,5.0,50,0.00,,---,0.00,VWS V13.01,2013-04-21 19:30:00,
2013-04-21 15:35:00,48.9,31.6,30.53,South,183,6.0,6.0,51,0.00,,---,0.00,VWS V13.01,2013-04-21 19:35:00,
2013-04-21 15:40:00,49.5,31.1,30.54,SSE,167,3.0,4.0,49,0.00,,---,0.00,VWS V13.01,2013-04-21 19:40:00,
2013-04-21 15:45:00,49.6,31.2,30.54,SE,128,3.0,5.0,49,0.00,,---,0.00,VWS V13.01,2013-04-21 19:45:00,
2013-04-21 15:50:00,49.9,32.0,30.54,South,188,2.0,4.0,50,0.00,,---,0.00,VWS V13.01,2013-04-21 19:50:00,
2013-04-21 15:55:00,50.0,31.1,30.54,SE,144,2.0,5.0,48,0.00,,---,0.00,VWS V13.01,2013-04-21 19:55:00,
2013-04-21 16:00:00,49.8,31.4,30.54,South,169,2.0,3.0,49,0.00,,---,0.00,VWS V13.01,2013-04-21 20:00:00,
2013-04-21 16:05:00,49.4,31.6,30.54,SE,132,3.0,10.0,50,0.00,,---,0.00,VWS V13.01,2013-04-21 20:05:00,
2013-04-21 16:10:00,49.9,31.0,30.54,ESE,115,0.0,5.0,48,0.00,,---,0.00,VWS V13.01,2013-04-21 20:10:00,
2013-04-21 16:15:00,50.1,31.7,30.54,SSE,156,3.0,6.0,49,0.00,,---,0.00,VWS V13.01,2013-04-21 20:15:00,
2013-04-21 16:20:00,50.4,33.0,30.54,SSE,153,1.0,4.0,51,0.00,,---,0.00,VWS V13.01,2013-04-21 20:20:00,
2013-04-21 16:25:00,50.4,31.5,30.54,SSE,155,1.0,2.0,48,0.00,,---,0.00,VWS V13.01,2013-04-21 20:25:00,
2013-04-21 16:30:00,50.3,32.9,30.54,SSE,155,2.0,4.0,51,0.00,,---,0.00,VWS V13.01,2013-04-21 20:30:00,
2013-04-21 16:35:00,50.4,33.5,30.54,SSE,152,3.0,5.0,52,0.00,,---,0.00,VWS V13.01,2013-04-21 20:35:00,
2013-04-21 16:40:00,50.2,32.3,30.54,SE,146,1.0,2.0,50,0.00,,---,0.00,VWS V13.01,2013-04-21 20:40:00,
2013-04-21 16:45:00,50.0,32.1,30.54,ESE,107,2.0,2.0,50,0.00,,---,0.00,VWS V13.01,2013-04-21 20:45:00,
2013-04-21 16:50:00,49.6,30.7,30.54,West,270,0.0,2.0,48,0.00,,---,0.00,VWS V13.01,2013-04-21 20:50:00,
2013-04-21 16:55:00,49.2,31.9,30.54,ESE,123,2.0,3.0,51,0.00,,---,0.00,VWS V13.01,2013-04-21 20:55:00,
2013-04-21 17:00:00,49.2,32.8,30.54,ESE,115,3.0,3.0,53,0.00,,---,0.00,VWS V13.01,2013-04-21 21:00:00,
2013-04-21 17:05:00,49.4,33.5,30.54,ESE,119,1.0,4.0,54,0.00,,---,0.00,VWS V13.01,2013-04-21 21:05:00,
2013-04-21 17:10:00,49.4,32.0,30.54,SE,125,4.0,4.0,51,0.00,,---,0.00,VWS V13.01,2013-04-21 21:10:00,
2013-04-21 17:15:00,49.2,32.3,30.54,SSE,155,2.0,4.0,52,0.00,,---,0.00,VWS V13.01,2013-04-21 21:15:00,
2013-04-21 17:20:00,48.6,32.3,30.54,ESE,114,1.0,2.0,53,0.00,,---,0.00,VWS V13.01,2013-04-21 21:20:00,
2013-04-21 17:25:00,48.3,32.4,30.54,ESE,121,3.0,3.0,54,0.00,,---,0.00,VWS V13.01,2013-04-21 21:25:00,
2013-04-21 17:30:00,48.2,32.8,30.54,South,173,2.0,3.0,55,0.00,,---,0.00,VWS V13.01,2013-04-21 21:30:00,
2013-04-21 17:35:00,48.1,31.3,30.54,SE,142,1.0,2.0,52,0.00,,---,0.00,VWS V13.01,2013-04-21 21:35:00,
2013-04-21 17:40:00,47.9,31.6,30.54,SE,130,1.0,3.0,53,0.00,,---,0.00,VWS V13.01,2013-04-21 21:40:00,
2013-04-21 17:45:00,47.8,30.6,30.55,SSE,153,1.0,4.0,51,0.00,,---,0.00,VWS V13.01,2013-04-21 21:45:00,
2013-04-21 17:50:00,47.7,31.4,30.55,ESE,120,4.0,4.0,53,0.00,,---,0.00,VWS V13.01,2013-04-21 21:50:00,
2013-04-21 17:55:00,47.6,32.7,30.55,SE,136,2.0,3.0,56,0.00,,---,0.00,VWS V13.01,2013-04-21 21:55:00,
2013-04-21 18:00:00,47.7,32.3,30.54,SSE,161,0.0,1.0,55,0.00,,---,0.00,VWS V13.01,2013-04-21 22:00:00,
2013-04-21 18:05:00,47.5,32.2,30.54,SSE,151,1.0,3.0,55,0.00,,---,0.00,VWS V13.01,2013-04-21 22:05:00,
2013-04-21 18:10:00,47.3,33.3,30.54,SSE,159,3.0,3.0,58,0.00,,---,0.00,VWS V13.01,2013-04-21 22:10:00,
2013-04-21 18:15:00,47.2,33.2,30.54,SE,145,3.0,4.0,58,0.00,,---,0.00,VWS V13.01,2013-04-21 22:15:00,
2013-04-21 18:20:00,47.2,33.2,30.54,SSW,202,2.0,3.0,58,0.00,,---,0.00,VWS V13.01,2013-04-21 22:20:00,
2013-04-21 18:25:00,47.2,33.2,30.54,South,172,2.0,4.0,58,0.00,,---,0.00,VWS V13.01,2013-04-21 22:25:00,
2013-04-21 18:30:00,47.2,33.2,30.54,ESE,111,1.0,2.0,58,0.00,,---,0.00,VWS V13.01,2013-04-21 22:30:00,
2013-04-21 18:35:00,47.1,33.5,30.54,SW,222,4.0,5.0,59,0.00,,---,0.00,VWS V13.01,2013-04-21 22:35:00,
2013-04-21 18:40:00,46.9,32.9,30.54,SSE,163,2.0,3.0,58,0.00,,---,0.00,VWS V13.01,2013-04-21 22:40:00,
2013-04-21 18:45:00,46.8,33.7,30.55,SSW,199,1.0,1.0,60,0.00,,---,0.00,VWS V13.01,2013-04-21 22:45:00,
2013-04-21 18:50:00,46.7,33.6,30.55,South,186,0.0,1.0,60,0.00,,---,0.00,VWS V13.01,2013-04-21 22:50:00,
2013-04-21 18:55:00,46.5,33.4,30.55,South,170,0.0,1.0,60,0.00,,---,0.00,VWS V13.01,2013-04-21 22:55:00,
2013-04-21 19:00:00,46.5,33.0,30.55,South,184,0.0,5.0,59,0.00,,---,0.00,VWS V13.01,2013-04-21 23:00:00,
2013-04-21 19:05:00,46.4,33.3,30.55,SSE,153,0.0,3.0,60,0.00,,---,0.00,VWS V13.01,2013-04-21 23:05:00,
2013-04-21 19:10:00,46.3,32.8,30.56,SSE,161,1.0,2.0,59,0.00,,---,0.00,VWS V13.01,2013-04-21 23:10:00,
2013-04-21 19:15:00,46.2,32.7,30.56,SSE,153,2.0,2.0,59,0.00,,---,0.00,VWS V13.01,2013-04-21 23:15:00,
2013-04-21 19:20:00,46.0,32.5,30.56,SSE,156,1.0,3.0,59,0.00,,---,0.00,VWS V13.01,2013-04-21 23:20:00,
2013-04-21 19:25:00,45.8,32.3,30.56,SSE,153,3.0,3.0,59,0.00,,---,0.00,VWS V13.01,2013-04-21 23:25:00,
2013-04-21 19:30:00,45.7,32.6,30.56,SSE,162,3.0,3.0,60,0.00,,---,0.00,VWS V13.01,2013-04-21 23:30:00,
2013-04-21 19:35:00,45.5,32.8,30.56,South,184,0.0,2.0,61,0.00,,---,0.00,VWS V13.01,2013-04-21 23:35:00,
2013-04-21 19:40:00,45.4,32.3,30.57,SSE,158,0.0,0.0,60,0.00,,---,0.00,VWS V13.01,2013-04-21 23:40:00,
2013-04-21 19:45:00,45.2,32.2,30.56,SSE,158,0.0,0.0,60,0.00,,---,0.00,VWS V13.01,2013-04-21 23:45:00,
2013-04-21 19:50:00,45.1,32.9,30.57,SSE,149,0.0,0.0,62,0.00,,---,0.00,VWS V13.01,2013-04-21 23:50:00,
2013-04-21 19:55:00,45.0,32.8,30.57,SSE,164,2.0,3.0,62,0.00,,---,0.00,VWS V13.01,2013-04-21 23:55:00,
2013-04-21 20:00:00,44.9,32.7,30.57,SE,141,0.0,0.0,62,0.00,,---,0.00,VWS V13.01,2013-04-22 00:00:00,
2013-04-21 20:05:00,44.7,33.3,30.57,SSE,159,1.0,1.0,64,0.00,,---,0.00,VWS V13.01,2013-04-22 00:05:00,
2013-04-21 20:10:00,44.6,33.2,30.57,SSE,148,1.0,1.0,64,0.00,,---,0.00,VWS V13.01,2013-04-22 00:10:00,
2013-04-21 20:15:00,44.5,32.7,30.57,SSE,165,0.0,0.0,63,0.00,,---,0.00,VWS V13.01,2013-04-22 00:15:00,
2013-04-21 20:20:00,44.3,32.5,30.58,South,191,1.0,1.0,63,0.00,,---,0.00,VWS V13.01,2013-04-22 00:20:00,
2013-04-21 20:25:00,44.2,32.8,30.58,SE,124,0.0,1.0,64,0.00,,---,0.00,VWS V13.01,2013-04-22 00:25:00,
2013-04-21 20:30:00,44.1,32.7,30.58,SSE,157,1.0,1.0,64,0.00,,---,0.00,VWS V13.01,2013-04-22 00:30:00,
2013-04-21 20:35:00,44.0,32.6,30.58,South,188,1.0,1.0,64,0.00,,---,0.00,VWS V13.01,2013-04-22 00:35:00,
2013-04-21 20:40:00,43.9,32.9,30.58,South,171,0.0,0.0,65,0.00,,---,0.00,VWS V13.01,2013-04-22 00:40:00,
2013-04-21 20:44:00,43.8,33.2,30.58,South,179,0.0,0.0,66,0.00,,---,0.00,VWS V13.01,2013-04-22 00:44:00,
2013-04-21 20:49:00,43.7,33.1,30.58,SSE,165,0.0,1.0,66,0.00,,---,0.00,VWS V13.01,2013-04-22 00:49:00,
2013-04-21 20:54:00,43.6,32.6,30.59,SSE,163,0.0,1.0,65,0.00,,---,0.00,VWS V13.01,2013-04-22 00:54:00,
2013-04-21 20:59:00,43.5,32.9,30.58,SSE,159,1.0,1.0,66,0.00,,---,0.00,VWS V13.01,2013-04-22 00:59:00,
2013-04-21 21:04:00,43.4,32.8,30.59,SSE,153,0.0,0.0,66,0.00,,---,0.00,VWS V13.01,2013-04-22 01:04:00,
2013-04-21 21:09:00,43.3,33.1,30.59,SSW,202,2.0,2.0,67,0.00,,---,0.00,VWS V13.01,2013-04-22 01:09:00,
2013-04-21 21:14:00,43.2,33.0,30.59,SSE,161,0.0,1.0,67,0.00,,---,0.00,VWS V13.01,2013-04-22 01:14:00,
2013-04-21 21:19:00,43.2,33.4,30.59,SSE,160,0.0,1.0,68,0.00,,---,0.00,VWS V13.01,2013-04-22 01:19:00,
2013-04-21 21:24:00,43.1,33.3,30.59,SSE,155,0.0,0.0,68,0.00,,---,0.00,VWS V13.01,2013-04-22 01:24:00,
2013-04-21 21:29:00,43.0,33.2,30.59,SSE,153,0.0,1.0,68,0.00,,---,0.00,VWS V13.01,2013-04-22 01:29:00,
2013-04-21 21:34:00,42.9,32.7,30.58,SE,142,1.0,1.0,67,0.00,,---,0.00,VWS V13.01,2013-04-22 01:34:00,
2013-04-21 21:39:00,42.9,32.7,30.58,ESE,123,0.0,1.0,67,0.00,,---,0.00,VWS V13.01,2013-04-22 01:39:00,
2013-04-21 21:44:00,42.8,33.0,30.58,ESE,123,0.0,0.0,68,0.00,,---,0.00,VWS V13.01,2013-04-22 01:44:00,
2013-04-21 21:49:00,42.7,32.9,30.58,ESE,123,0.0,0.0,68,0.00,,---,0.00,VWS V13.01,2013-04-22 01:49:00,
2013-04-21 21:54:00,42.6,32.8,30.58,ESE,123,0.0,0.0,68,0.00,,---,0.00,VWS V13.01,2013-04-22 01:54:00,
2013-04-21 21:59:00,42.5,32.7,30.58,ESE,123,0.0,0.0,68,0.00,,---,0.00,VWS V13.01,2013-04-22 01:59:00,
2013-04-21 22:04:00,42.5,32.7,30.58,ESE,123,0.0,0.0,68,0.00,,---,0.00,VWS V13.01,2013-04-22 02:04:00,
2013-04-21 22:09:00,42.3,33.2,30.58,ESE,123,0.0,0.0,70,0.00,,---,0.00,VWS V13.01,2013-04-22 02:09:00,
2013-04-21 22:14:00,42.3,33.2,30.58,ESE,123,0.0,0.0,70,0.00,,---,0.00,VWS V13.01,2013-04-22 02:14:00,
2013-04-21 22:19:00,42.2,33.1,30.58,ESE,123,0.0,0.0,70,0.00,,---,0.00,VWS V13.01,2013-04-22 02:19:00,
2013-04-21 22:24:00,42.1,33.4,30.58,ESE,123,0.0,0.0,71,0.00,,---,0.00,VWS V13.01,2013-04-22 02:24:00,
2013-04-21 22:29:00,42.0,33.6,30.58,ESE,123,0.0,0.0,72,0.00,,---,0.00,VWS V13.01,2013-04-22 02:29:00,
2013-04-21 22:34:00,41.9,33.2,30.58,ESE,123,0.0,0.0,71,0.00,,---,0.00,VWS V13.01,2013-04-22 02:34:00,
2013-04-21 22:39:00,41.8,33.5,30.59,ESE,123,0.0,0.0,72,0.00,,---,0.00,VWS V13.01,2013-04-22 02:39:00,
2013-04-21 22:44:00,41.6,32.9,30.59,ESE,123,0.0,0.0,71,0.00,,---,0.00,VWS V13.01,2013-04-22 02:44:00,
2013-04-21 22:49:00,41.5,33.2,30.58,ESE,123,0.0,0.0,72,0.00,,---,0.00,VWS V13.01,2013-04-22 02:49:00,
2013-04-21 22:54:00,41.3,33.0,30.58,ESE,123,0.0,0.0,72,0.00,,---,0.00,VWS V13.01,2013-04-22 02:54:00,
2013-04-21 22:59:00,41.3,33.0,30.58,ESE,123,0.0,0.0,72,0.00,,---,0.00,VWS V13.01,2013-04-22 02:59:00,
2013-04-21 23:04:00,41.1,32.8,30.58,ESE,123,0.0,0.0,72,0.00,,---,0.00,VWS V13.01,2013-04-22 03:04:00,
2013-04-21 23:09:00,41.1,33.1,30.58,SE,124,0.0,0.0,73,0.00,,---,0.00,VWS V13.01,2013-04-22 03:09:00,
2013-04-21 23:14:00,41.1,33.1,30.58,ESE,123,0.0,0.0,73,0.00,,---,0.00,VWS V13.01,2013-04-22 03:14:00,
2013-04-21 23:19:00,41.0,32.7,30.58,ESE,123,0.0,0.0,72,0.00,,---,0.00,VWS V13.01,2013-04-22 03:19:00,
2013-04-21 23:24:00,41.0,34.0,30.58,ESE,123,0.0,0.0,76,0.00,,---,0.00,VWS V13.01,2013-04-22 03:24:00,
2013-04-21 23:29:00,40.9,32.6,30.58,ESE,123,0.0,0.0,72,0.00,,---,0.00,VWS V13.01,2013-04-22 03:29:00,
2013-04-21 23:34:00,40.8,32.5,30.59,ESE,123,0.0,0.0,72,0.00,,---,0.00,VWS V13.01,2013-04-22 03:34:00,
2013-04-21 23:39:00,40.7,32.7,30.59,ESE,123,0.0,0.0,73,0.00,,---,0.00,VWS V13.01,2013-04-22 03:39:00,
2013-04-21 23:44:00,40.6,32.6,30.59,ESE,123,0.0,0.0,73,0.00,,---,0.00,VWS V13.01,2013-04-22 03:44:00,
2013-04-21 23:49:00,40.6,32.6,30.59,ESE,123,0.0,0.0,73,0.00,,---,0.00,VWS V13.01,2013-04-22 03:49:00,
2013-04-21 23:54:00,40.5,32.5,30.59,ESE,123,0.0,0.0,73,0.00,,---,0.00,VWS V13.01,2013-04-22 03:54:00,
2013-04-21 23:59:00,40.4,32.4,30.59,SE,128,1.0,1.0,73,0.00,,---,0.00,VWS V13.01,2013-04-22 03:59:00,